RH
89 85 83 93 95 93 90 82 75 70 72 66 62 58 56 51 45 40 33 28 24 22 18 17 16 16 16 15 16 16 17 17 18 18 19 20 21 23 24 25 26 27 29 32 35 38 42 46 51 53 54 58 62 66 69 68 65 59 52 46 45 47 51 64 80 91 93 93 90 83 71 62 54 48 43 64 83 96 96 95 94 93 93 95 96 97 95 94 92 90 89 95 95 93 94 97 96 93 89 77 79 88 96
77 74 76 87 88 85 80 74 68 63 59 57 53 49 44 37 34 31 27 24 22 21 18 17 16 16 16 15 15 15 15 16 17 18 18 19 20 20 21 21 21 22 23 25 27 29 32 35 39 41 42 45 49 54 58 56 53 47 41 41 43 46 46 61 73 82 91 89 85 77 63 48 37 32 33 49 70 87 91 92 90 88 84 86 87 88 89 86 84 82 78 89 93 93 92 96 97 96 95 86 82 82 89
68 68 70 74 73 70 66 62 57 52 48 45 43 39 33 27 24 22 20 19 18 17 17 16 16 15 15 15 15 14 15 16 17 18 19 20 20 20 20 21 21 21 21 23 24 24 25 26 28 29 30 31 33 36 39 39 38 37 38 42 44 44 41 52 62 71 81 85 81 69 53 34 26 27 34 55 70 79 81 80 81 79 72 75 78 81 86 83 83 83 77 85 89 90 89 93 96 96 94 92 84 79 82
65 66 68 64 59 55 50 47 43 40 37 35 32 29 25 21 19 18 17 16 16 15 15 15 15 14 14 14 14 14 15 16 18 19 20 21 21 21 21 21 21 21 21 22 23 23 22 21 21 21 21 21 23 25 28 31 34 37 39 41 40 38 34 35 44 58 74 80 74 59 40 27 30 42 57 74 78 77 78 79 79 77 73 75 77 79 83 85 87 90 93 92 93 93 89 92 94 95 94 94 87 80 76
57 61 64 60 53 45 41 40 37 33 31 29 26 24 21 20 19 18 16 16 15 15 14 14 14 14 14 14 14 15 16 18 19 21 22 22 22 21 21 21 20 21 21 23 23 23 22 21 20 20 21 22 23 26 31 34 37 38 39 38 35 31 28 30 43 59 75 77 67 51 32 35 50 69 81 82 84 84 80 84 81 79 87 83 83 85 90 91 89 88 94 94 95 96 93 93 93 92 91 91 83 74 69
47 54 61 59 49 40 40 40 36 32 30 30 29 27 26 25 23 21 18 17 16 15 14 14 14 14 14 14 14 15 17 19 20 21 22 22 21 21 20 20 20 21 23 24 25 26 25 24 24 24 26 27 29 31 33 35 37 37 36 34 29 26 28 40 56 70 77 73 60 45 35 52 70 84 90 89 87 85 82 83 80 79 83 79 81 84 85 86 87 89 90 93 95 96 96 95 92 89 86 83 77 70 65
39 46 55 54 45 37 40 38 36 35 37 39 36 32 31 30 27 25 21 20 18 16 15 15 14 13 13 13 14 16 17 19 20 21 21 21 20 20 19 20 21 23 25 27 28 29 29 28 28 28 29 29 30 30 31 33 34 34 32 27 25 26 33 50 64 73 78 67 53 46 53 73 88 95 92 90 85 78 72 70 68 67 67 67 69 72 74 72 72 74 77 80 85 88 86 88 86 83 77 71 67 64 60
34 36 37 45 45 41 39 40 39 39 43 47 44 38 33 31 28 26 25 22 19 18 16 16 15 15 14 14 14 15 16 17 18 18 19 19 19 19 20 22 24 26 28 29 31 32 31 31 32 32 31 30 29 29 30 30 30 29 26 22 22 28 40 56 66 68 64 50 49 57 69 84 93 97 99 85 75 68 61 57 52 49 51 53 55 57 60 59 60 62 60 64 67 69 69 68 68 67 65 59 56 55 51
33 32 31 40 42 39 36 37 38 39 43 43 41 39 35 33 32 31 32 25 21 19 18 17 16 16 15 14 14 14 14 15 15 16 17 18 19 20 22 24 26 28 29 31 32 33 33 33 34 34 32 31 29 28 28 28 27 25 21 19 22 29 36 59 65 60 48 39 51 71 84 91 95 94 89 73 62 55 48 44 40 37 35 35 37 41 43 46 47 47 47 49 51 53 56 54 53 51 50 47 45 43 37
32 31 31 34 35 35 36 38 37 37 38 39 36 34 33 32 32 32 31 27 24 21 18 18 17 17 16 15 14 13 13 14 14 15 16 18 19 22 24 26 28 29 30 31 32 33 34 33 34 34 32 31 29 28 27 27 26 23 18 19 25 31 36 60 65 55 38 48 64 81 94 94 94 88 71 59 49 41 32 27 23 19 17 19 22 26 31 34 36 37 38 40 42 44 44 43 41 40 39 37 35 32 30
30 29 30 31 32 33 34 33 32 33 35 35 33 31 31 28 28 29 29 28 27 25 21 19 18 16 15 14 14 14 14 14 15 16 17 18 21 23 26 27 28 29 29 30 31 32 32 32 33 33 31 29 28 28 27 27 25 21 17 21 28 34 35 55 60 56 44 61 75 86 97 94 87 75 56 46 36 27 16 13 12 13 12 14 17 21 25 27 27 27 29 30 30 31 31 32 32 32 29 27 25 24 23
26 26 28 29 30 31 31 30 30 30 32 32 31 31 29 28 28 29 28 32 32 29 26 22 19 16 15 15 15 15 15 16 16 17 19 21 23 25 26 27 28 29 29 29 29 29 29 29 30 30 28 27 27 26 25 23 20 17 15 25 32 34 34 51 60 61 58 69 82 92 96 91 80 65 48 38 26 15 8 8 8 9 11 12 14 16 18 19 20 20 20 20 20 20 20 21 21 21 20 19 18 17 15
23 23 26 27 29 31 32 31 30 30 31 32 33 33 32 32 32 31 31 34 34 33 28 24 21 19 18 18 17 17 17 17 18 20 21 23 25 26 27 28 29 29 29 28 27 26 26 26 26 26 25 23 22 21 19 16 14 13 12 33 37 33 32 42 59 73 74 80 89 96 95 93 77 57 45 35 22 12 9 8 7 7 8 10 11 12 13 14 14 14 14 14 14 14 13 14 14 14 13 14 13 13 13
21 22 25 28 31 33 34 33 33 33 34 35 37 38 39 38 37 36 35 35 33 31 30 27 26 25 24 23 22 21 21 21 22 24 25 26 27 28 28 29 29 30 29 28 27 26 23 22 21 20 19 17 16 15 14 11 10 9 10 33 37 32 29 34 59 84 91 90 92 95 93 87 69 52 44 33 21 12 9 8 6 5 5 6 8 9 10 11 12 12 12 12 12 12 12 12 12 12 13 13 13 13 13
22 23 28 32 35 35 35 35 36 36 38 39 40 41 43 41 40 39 38 36 34 31 30 30 31 31 31 30 29 28 28 28 28 28 29 29 30 30 30 30 30 29 29 27 27 26 22 19 17 15 13 13 13 12 11 9 7 7 10 21 28 31 29 32 57 86 97 95 96 95 90 80 64 49 42 32 21 12 10 8 6 5 4 4 5 6 7 8 9 10 10 11 14 16 15 16 15 15 16 14 13 13 13
23 25 32 35 36 35 35 36 37 39 40 40 41 41 42 40 39 38 38 37 36 34 32 34 35 37 38 38 37 36 35 34 34 33 32 32 31 32 32 32 31 30 29 27 27 25 22 16 13 11 10 13 13 12 10 7 6 6 8 13 19 25 27 28 51 78 90 90 90 90 85 73 59 47 41 31 21 12 9 8 6 4 3 4 5 6 7 7 8 9 10 12 16 18 19 19 18 17 17 15 14 12 13
23 27 35 36 35 35 36 38 40 41 41 42 41 41 40 39 38 38 38 38 38 37 35 36 38 40 43 44 44 43 42 40 38 36 35 34 33 33 34 33 32 31 30 29 27 24 19 13 11 9 8 13 15 13 9 7 6 5 6 9 14 19 21 22 40 62 76 74 74 73 69 62 53 45 38 28 19 12 9 8 6 5 5 6 7 8 9 11 12 12 11 13 15 17 18 18 18 17 15 13 11 11 12
22 27 35 36 35 36 38 40 41 41 41 42 42 41 41 41 40 40 40 40 39 38 38 39 40 43 46 49 50 50 48 45 42 40 38 36 35 35 35 34 34 33 33 32 29 23 15 11 9 8 7 12 14 12 9 7 6 5 6 7 11 15 16 17 27 43 63 59 57 55 52 49 45 39 33 23 16 12 9 7 5 5 6 7 7 8 11 14 15 14 14 14 15 16 16 16 15 15 13 11 10 10 11
22 25 31 33 35 37 40 40 40 41 42 42 42 43 43 44 43 43 42 41 40 40 41 43 45 48 51 54 56 56 54 49 46 43 42 41 40 38 36 34 32 31 31 31 27 20 12 9 8 8 7 10 11 11 9 8 6 5 5 6 9 12 13 13 16 26 47 46 44 41 38 35 33 30 27 20 16 12 9 6 5 6 8 7 7 8 10 13 14 14 14 14 15 15 15 13 12 11 11 10 10 10 11
23 25 28 31 35 39 40 40 41 42 43 44 44 45 45 45 45 44 43 43 43 44 46 49 51 54 57 59 60 60 59 54 50 47 45 45 44 42 39 35 31 27 24 24 20 14 9 7 6 6 5 7 9 10 8 8 6 5 5 5 6 9 11 10 12 19 34 34 31 27 24 20 18 18 19 18 15 12 9 6 6 7 9 8 8 8 9 11 12 13 13 14 14 14 14 13 12 11 11 11 11 12 12
24 26 28 31 36 40 41 41 42 43 45 47 47 47 47 47 47 46 46 47 48 50 52 54 57 58 60 62 63 63 61 58 53 50 47 46 45 44 41 37 32 26 20 16 13 10 7 6 5 4 4 5 7 9 8 8 6 5 5 5 5 6 9 9 14 22 30 26 21 16 14 12 11 11 13 16 14 11 8 7 7 9 11 10 9 8 9 10 12 13 14 14 15 15 15 14 13 12 12 12 12 13 14
25 27 29 33 36 39 41 42 43 45 48 50 51 51 50 50 51 51 52 53 55 57 59 60 60 60 61 62 64 65 65 61 57 53 49 47 45 43 40 36 31 24 16 13 10 8 6 5 5 4 3 4 6 7 8 7 6 5 4 4 4 5 6 9 15 22 27 21 15 10 8 8 8 9 10 13 13 11 9 8 9 10 12 12 11 10 10 11 12 13 14 15 15 16 17 15 14 13 12 13 13 14 15
25 27 30 34 36 39 40 42 44 47 51 53 55 55 56 56 57 58 59 60 61 62 63 64 65 64 63 63 65 66 66 63 59 55 51 48 45 43 40 35 30 23 15 12 9 7 5 5 5 4 3 4 5 6 7 7 5 4 4 4 4 4 4 8 15 22 24 17 12 8 6 6 7 9 10 14 14 12 10 10 10 12 14 14 13 12 12 13 14 15 15 15 15 16 16 16 14 14 14 13 14 15 15
25 27 30 34 37 39 41 43 46 49 53 56 58 60 61 62 63 64 66 66 65 64 64 65 65 66 66 66 65 66 66 64 61 57 52 49 46 43 39 35 29 23 16 14 11 8 5 5 5 4 4 4 4 6 6 6 5 4 4 4 4 4 4 6 13 20 22 17 11 7 6 7 8 10 12 14 14 13 12 11 12 13 14 14 14 14 15 15 16 16 17 16 16 15 15 15 15 15 15 15 15 16 16
23 25 29 34 37 39 42 46 48 51 54 58 60 62 63 63 64 66 68 69 68 67 65 64 64 64 65 65 65 65 65 65 63 59 54 50 46 43 38 34 30 25 19 16 13 10 6 5 5 4 4 4 4 5 5 4 4 4 4 4 4 4 4 4 9 16 23 17 11 7 6 7 9 12 14 15 15 14 14 13 13 14 14 15 15 16 16 17 17 18 18 18 17 16 16 16 17 18 18 18 18 18 18
23 24 26 32 36 40 44 49 51 52 54 58 60 62 62 63 63 63 65 66 67 67 67 67 66 65 64 63 62 62 63 63 62 59 55 51 47 44 40 35 31 26 21 17 14 11 8 6 5 5 4 4 4 4 4 4 4 4 4 4 3 4 4 4 6 10 18 16 12 8 7 9 10 13 16 16 17 17 16 16 15 15 15 15 16 17 17 18 18 19 19 19 18 18 17 18 19 20 21 21 21 21 21
26 24 24 29 35 41 47 51 53 54 54 56 58 60 61 61 61 61 62 63 64 65 67 68 68 67 66 64 63 63 64 63 60 57 52 48 46 43 41 36 31 26 21 16 13 11 8 6 5 5 4 4 4 4 4 4 4 4 4 4 4 4 4 4 5 7 12 15 12 9 8 10 12 15 18 19 19 20 19 18 17 16 16 16 17 18 18 18 19 20 20 20 20 19 19 20 21 22 22 23 24 24 24
31 29 26 30 36 43 49 52 54 54 54 54 55 57 60 60 61 61 62 64 65 66 68 70 70 70 70 69 68 68 68 65 60 54 49 45 43 42 41 36 31 25 19 14 11 9 8 6 5 5 4 4 4 4 4 4 4 4 4 4 4 4 4 5 5 6 11 14 13 11 10 12 14 16 18 20 21 22 22 22 20 18 17 17 18 18 18 19 20 20 21 22 22 22 21 22 22 23 24 25 26 26 26
37 34 30 34 39 45 49 51 53 53 53 52 53 55 56 58 60 61 63 67 68 69 70 73 75 75 75 73 72 72 72 70 64 56 47 44 42 40 38 34 28 21 15 11 8 7 7 6 5 5 5 4 4 4 4 4 4 4 4 4 4 4 5 6 6 8 11 15 15 14 13 14 16 18 19 21 22 23 22 22 21 20 19 18 18 18 19 19 20 21 22 23 24 24 24 24 24 25 26 26 27 27 28
41 38 35 37 42 46 49 50 51 52 51 51 51 52 54 56 59 62 66 72 73 73 71 75 77 79 78 76 76 76 76 73 68 61 51 45 41 37 33 27 21 16 12 9 7 6 5 5 5 5 5 4 4 4 4 4 4 4 4 4 5 5 6 8 8 10 12 14 16 15 13 15 17 19 23 24 24 23 23 23 23 22 21 19 19 19 19 20 21 22 23 25 26 26 26 26 26 27 27 27 28 28 29
42 38 36 39 43 47 49 48 49 50 50 51 51 53 55 58 60 64 70 76 77 76 72 76 79 80 79 78 79 80 77 74 70 65 56 47 39 32 26 20 16 12 10 7 6 5 5 5 5 5 5 4 4 4 4 4 4 4 4 5 5 6 7 10 11 12 13 16 18 18 15 16 19 22 22 25 27 28 28 26 24 23 22 21 20 20 20 21 23 24 25 26 27 28 28 28 28 29 28 28 28 29 29
43 38 34 37 42 46 48 47 47 48 48 50 52 55 58 61 64 68 73 77 78 76 72 76 79 81 80 81 81 80 76 73 70 66 57 46 37 28 21 17 13 10 8 7 6 5 5 5 5 5 5 5 4 4 4 4 4 4 5 5 6 7 9 11 13 15 15 17 20 22 20 19 20 23 23 23 25 27 27 25 24 24 24 23 23 22 22 23 24 26 27 28 29 30 30 30 30 30 30 29 29 29 29
45 40 33 34 38 42 46 45 46 46 47 50 53 56 60 63 66 70 75 77 77 76 71 75 78 80 80 81 80 76 73 72 69 63 54 43 33 25 19 16 13 10 8 6 5 5 5 5 5 5 6 6 6 5 5 5 5 5 5 6 7 9 11 13 15 17 18 18 20 23 24 22 21 22 22 22 23 23 24 25 25 26 26 26 26 26 26 26 27 28 29 29 30 31 31 31 31 31 31 30 30 30 30
46 43 36 33 34 38 42 43 44 45 46 50 53 57 61 64 66 68 72 74 76 76 73 73 75 76 77 78 76 72 69 68 66 60 52 42 33 25 18 15 12 10 7 6 5 5 5 6 6 6 7 7 7 7 6 6 6 5 6 7 8 10 12 15 17 18 19 20 20 21 22 22 22 22 22 23 23 24 25 25 26 27 27 28 28 29 29 29 30 30 30 31 31 31 32 32 32 32 32 32 31 31 31
45 43 39 33 32 33 37 40 43 46 47 50 53 57 60 64 66 67 70 72 75 76 73 72 72 73 73 73 71 69 67 65 63 59 53 44 35 26 19 15 12 9 7 6 5 6 6 7 7 8 8 9 9 9 9 7 7 6 6 7 9 12 15 17 19 20 21 21 22 22 22 23 23 23 24 24 25 25 26 26 27 28 28 29 29 30 30 31 31 31 31 31 32 32 32 32 33 33 33 32 32 32 32
45 44 42 35 30 28 30 37 42 46 47 50 54 58 61 64 65 67 71 74 76 77 74 72 71 71 70 69 68 66 64 63 62 60 55 46 36 27 20 16 12 9 7 6 6 6 7 8 8 9 10 11 11 12 11 9 8 7 6 7 10 13 16 19 21 22 23 23 23 24 24 24 25 25 25 25 26 26 27 27 28 28 29 29 30 30 31 31 32 32 32 32 32 32 32 33 33 33 33 33 33 33 33
50 48 44 38 30 25 25 32 38 44 47 49 53 58 61 63 65 67 71 73 74 75 74 73 72 71 69 67 65 63 62 62 61 59 53 44 35 27 20 16 12 9 6 6 6 7 8 9 10 11 12 13 14 14 13 11 9 8 7 8 10 14 18 20 22 23 24 24 24 25 25 26 26 26 26 27 27 28 28 29 29 29 30 30 30 31 31 31 32 32 32 33 33 33 33 33 33 33 33 33 33 33 33
56 53 49 42 33 26 22 27 34 41 46 49 53 56 59 61 63 66 68 70 71 71 71 72 72 70 68 66 64 62 61 60 58 54 47 40 33 27 21 16 11 8 6 6 7 8 9 10 12 13 14 15 16 16 15 13 10 9 8 9 11 14 18 21 23 24 25 25 25 26 26 27 27 27 28 28 28 29 29 30 30 30 31 31 31 31 32 32 32 32 32 32 33 33 33 33 33 33 33 33 33 33 34
63 59 54 46 37 29 24 27 32 38 44 49 52 54 57 59 61 63 66 68 69 69 70 70 70 69 67 65 63 61 60 58 54 49 42 37 32 27 21 16 11 8 6 7 8 9 10 12 13 15 17 18 18 18 17 15 12 9 9 10 12 15 18 21 23 25 25 26 26 26 26 27 28 28 28 29 29 30 30 31 31 31 31 32 32 32 32 32 32 32 32 32 33 33 33 33 33 33 33 33 33 34 34
68 63 58 50 41 33 29 30 33 37 42 47 51 53 55 57 59 61 64 66 67 69 70 70 69 67 65 63 61 60 59 56 51 46 41 39 35 29 21 15 11 8 7 7 9 10 12 14 15 17 19 20 20 20 19 17 14 10 9 10 12 15 18 21 24 25 26 26 27 27 27 28 28 29 29 29 30 30 31 31 31 32 32 32 32 32 32 32 32 32 32 32 32 33 33 33 33 33 33 33 33 33 34
71 65 60 53 46 39 35 34 34 36 40 45 49 52 54 54 55 57 60 62 65 68 69 69 67 65 63 61 61 60 59 55 51 48 46 45 41 33 24 16 11 8 7 9 10 12 14 15 17 19 20 21 22 21 21 18 15 12 10 11 13 16 19 22 24 26 27 27 28 28 28 29 29 29 30 30 30 31 31 32 32 32 33 33 33 33 33 33 33 33 33 33 33 33 33 33 33 33 33 33 33 34 34
72 67 61 55 49 43 39 36 35 36 39 43 48 51 52 51 52 54 57 60 63 66 69 68 66 64 62 61 62 62 61 58 55 53 51 51 47 40 30 19 13 9 8 10 12 14 16 17 19 20 22 23 23 23 22 20 18 15 12 12 13 16 19 22 25 26 27 28 28 28 29 29 29 30 30 31 31 31 32 32 32 33 33 33 33 33 33 33 33 33 33 33 33 33 33 33 33 33 33 33 34 34 34
73 68 63 58 51 46 42 39 37 37 39 43 46 49 51 51 53 55 57 60 62 65 68 68 67 64 63 63 65 66 66 64 62 59 56 51 47 42 35 26 18 13 10 11 13 15 17 19 20 22 23 24 25 25 24 22 19 17 15 14 15 17 19 22 25 26 27 27 28 28 28 29 30 30 30 31 31 31 32 32 33 33 33 33 34 34 34 34 34 34 34 33 33 33 33 33 33 33 33 34 34 34 34
75 71 67 61 55 49 45 42 40 39 41 44 47 50 51 53 56 58 60 61 64 66 69 69 68 67 65 65 67 69 71 72 70 66 61 54 47 41 38 33 27 21 17 15 15 16 18 20 22 23 25 26 26 26 26 24 21 19 17 17 17 18 20 23 24 26 26 26 27 27 28 29 29 30 30 31 31 32 32 32 33 33 33 34 34 34 34 34 34 34 34 34 34 34 34 34 34 34 34 34 34 34 34
76 73 70 66 60 53 48 45 43 42 43 47 50 53 54 57 60 62 63 65 66 68 70 70 70 68 67 67 69 72 75 77 76 72 67 60 52 44 38 35 32 29 24 19 17 16 18 20 23 25 26 27 28 28 27 26 24 22 20 19 19 20 22 24 25 26 26 27 27 27 28 29 29 30 30 31 31 32 32 32 33 33 33 33 34 34 34 35 35 35 35 35 35 35 35 35 35 35 35 34 34 34 34
77 75 74 70 65 59 53 50 48 46 46 50 54 57 59 61 63 65 66 67 68 70 72 72 72 70 69 69 71 75 78 80 79 76 72 67 60 52 42 35 31 29 26 21 18 17 18 20 23 25 27 28 29 29 29 28 26 25 22 21 21 21 23 24 26 27 27 28 28 28 29 29 30 30 31 31 31 31 32 32 32 33 33 33 34 34 34 34 35 35 35 35 35 35 35 35 35 35 35 34 34 34 33
78 76 75 74 70 65 60 56 54 52 52 55 59 62 64 65 66 67 67 68 70 72 73 75 75 74 72 72 74 77 81 82 82 80 77 72 66 59 50 40 33 27 23 21 18 17 17 19 22 25 27 29 30 31 31 30 29 28 26 24 23 22 23 24 26 27 28 28 29 29 30 30 30 30 30 31 31 31 31 31 32 32 33 33 33 34 34 34 34 35 35 35 35 35 35 35 34 34 34 33 33 33 32
79 77 76 76 74 71 67 63 61 60 59 61 63 65 65 66 67 67 68 70 72 75 77 78 78 77 76 76 77 80 83 85 84 83 81 76 70 63 56 47 38 30 24 20 18 16 16 18 20 23 26 28 30 31 31 31 31 30 29 28 26 25 24 24 25 25 26 26 27 28 28 29 29 30 30 30 30 31 31 31 31 31 31 32 32 32 32 33 33 33 34 34 34 34 34 34 33 33 32 32 32 32 32
81 79 79 79 79 77 74 70 68 66 66 66 66 67 67 68 70 71 72 74 77 79 82 83 82 81 79 78 79 81 85 86 86 85 82 78 72 65 58 52 44 36 27 22 18 15 15 16 18 22 25 28 30 31 31 31 31 32 31 31 30 29 28 26 26 25 24 24 25 26 26 27 27 28 28 28 29 29 29 29 29 29 29 29 29 29 29 30 30 31 31 32 32 32 32 32 32 32 31 31 31 31 31
83 82 82 83 84 83 80 77 74 72 71 71 71 71 73 74 76 77 78 80 82 84 86 86 85 83 82 81 81 83 86 88 88 86 84 79 74 68 62 56 48 40 31 25 20 16 14 15 18 21 25 28 30 31 32 32 32 32 32 32 32 32 31 30 29 28 27 26 26 26 27 27 27 28 28 28 28 28 29 29 29 29 29 29 29 29 29 29 29 29 30 30 30 30 30 30 30 30 30 30 29 30 30
85 83 83 85 86 87 86 82 79 76 75 75 76 77 79 80 81 82 82 82 84 85 87 87 86 84 82 82 83 85 87 88 88 87 85 79 75 71 68 63 55 46 38 32 27 21 17 16 17 20 24 27 29 31 32 32 32 33 33 33 34 33 33 33 32 31 30 30 30 30 30 30 31 31 31 32 32 32 33 33 33 34 34 35 35 35 34 34 33 33 33 32 32 32 31 31 31 31 31 31 30 30 29
87 86 85 85 87 89 89 87 84 81 78 78 78 79 81 82 82 82 82 83 84 85 87 87 86 84 82 82 83 84 85 86 86 85 84 80 76 73 71 69 64 58 50 42 34 28 22 19 18 18 21 24 27 29 31 32 33 34 35 36 35 35 35 35 35 34 34 34 34 35 35 35 36 36 37 37 37 38 38 38 39 39 40 40 40 40 40 40 40 39 39 38 38 37 37 37 37 36 36 36 36 35 34
91 89 88 88 89 90 91 91 89 85 82 80 79 79 80 81 81 81 81 82 84 86 88 88 88 86 84 81 81 81 82 83 84 84 83 81 78 76 74 74 71 67 61 55 45 35 26 23 22 22 23 25 27 30 32 34 36 37 38 37 37 37 37 37 38 38 38 38 38 39 39 39 39 39 39 39 39 39 39 39 39 39 39 40 40 40 41 41 42 42 42 42 43 43 43 42 42 42 42 42 42 43 43
93 93 93 92 92 92 94 93 92 89 86 82 79 78 78 79 79 79 79 81 83 86 88 88 89 88 85 80 79 79 80 82 83 84 83 81 80 79 78 77 76 73 68 60 49 37 27 25 23 23 25 26 28 30 33 35 36 37 38 38 38 38 39 39 38 38 38 38 37 37 37 37 37 36 36 36 36 36 35 35 35 35 35 35 36 36 37 38 41 43 44 44 46 47 48 48 48 47 47 48 50 52 54
96 96 95 94 94 95 96 95 94 92 88 86 82 79 77 77 76 76 76 78 81 85 88 89 88 87 84 80 77 77 80 82 84 85 84 83 82 82 82 81 80 77 68 55 43 33 28 29 28 25 22 24 26 30 35 37 38 38 39 38 37 37 36 36 35 35 34 34 33 33 33 34 35 36 38 39 40 40 39 39 40 40 40 41 43 45 48 53 58 62 66 65 64 63 64 64 62 60 58 58 59 62 65
98 98 98 98 97 97 97 97 96 95 92 89 85 80 76 75 74 74 75 78 82 86 88 89 88 86 82 79 78 78 81 84 85 86 86 85 85 84 84 83 82 79 71 56 45 40 40 43 42 37 31 27 26 27 32 35 36 36 36 36 35 34 33 32 31 31 31 31 31 33 35 39 44 50 56 60 62 64 63 63 63 65 66 67 68 70 73 77 79 80 81 81 80 78 74 73 71 69 66 64 63 63 63
98 99 100 99 99 99 99 99 98 97 95 92 87 81 77 75 75 76 78 81 85 87 88 88 87 85 82 80 80 82 84 86 86 87 87 86 86 85 85 83 82 80 77 70 64 60 59 59 56 49 40 35 30 27 25 24 25 26 27 26 27 27 28 28 29 29 30 31 33 37 42 50 59 67 74 78 81 83 84 83 84 84 85 85 85 84 82 80 77 74 71 69 66 64 62 62 62 61 60 58 55 52 50
99 100 100 100 100 100 99 99 99 98 96 93 89 84 79 77 77 78 80 82 84 86 88 87 86 85 82 81 81 84 86 87 87 88 87 87 86 86 85 84 84 83 81 80 78 75 72 69 65 60 53 50 45 41 38 35 32 30 29 29 30 31 32 33 35 37 39 42 45 50 54 61 67 73 78 80 82 83 83 85 85 86 86 86 85 83 81 78 74 70 66 62 58 55 53 54 55 55 55 53 51 49 48
99 100 100 100 100 100 99 99 99 98 96 94 91 87 81 78 77 77 78 81 84 86 88 88 85 83 81 81 82 84 86 87 88 89 89 87 86 85 85 85 84 84 83 83 83 81 80 77 73 70 68 65 63 60 57 55 54 52 50 50 51 51 52 53 53 55 57 61 65 69 72 74 76 78 79 80 81 82 83 85 86 87 87 86 85 82 80 76 74 71 69 67 65 63 62 62 61 58 54 52 51 51 52
99 100 100 100 100 100 100 99 99 98 96 95 92 88 82 78 76 77 79 83 86 88 90 88 86 83 81 82 83 84 86 88 89 90 89 87 85 84 84 86 86 87 87 87 86 86 85 83 82 81 79 77 77 77 76 72 70 69 70 70 70 70 71 71 71 73 75 78 80 83 83 83 83 84 85 87 88 89 91 91 92 92 92 90 88 86 83 81 79 78 78 78 78 76 74 70 65 59 55 54 54 54 53
98 99 100 100 100 100 100 100 99 98 96 95 92 88 83 79 78 79 82 85 87 89 90 89 87 84 81 82 83 85 87 89 89 89 87 86 85 85 85 88 89 90 91 91 90 90 89 89 89 90 89 90 89 88 87 83 80 78 78 79 81 82 82 82 83 84 85 86 86 86 85 85 86 89 91 93 95 96 96 95 95 95 94 93 92 91 89 88 87 87 87 87 86 84 80 73 67 61 58 57 56 54 53
Wind_Speed
19 19 18 17 17 16 14 13 13 14 14 13 13 13 13 12 12 12 12 13 14 15 15 14 14 14 14 14 13 13 13 13 12 12 12 12 11 11 11 10 10 9 9 8 8 8 8 8 8 8 8 7 7 7 6 6 5 4 4 4 4 3 1 2 3 3 3 3 3 3 3 2 1 1 3 6 7 6 5 5 5 5 5 5 4 4 3 3 3 3 4 4 4 4 4 5 5 4 3 4 5 6 6
19 19 18 17 17 16 14 13 13 13 13 13 12 12 12 11 11 10 11 11 12 13 14 14 13 13 13 13 13 13 13 12 12 12 11 11 11 10 10 10 9 9 8 8 7 8 8 8 8 8 8 8 8 8 7 7 6 5 5 4 4 3 1 1 1 2 3 3 3 3 3 2 1 1 3 5 6 5 5 4 4 4 4 3 3 3 2 2 2 2 3 3 3 4 4 4 3 2 2 2 3 5 6
19 18 18 17 16 15 14 13 12 12 12 12 11 11 10 10 9 9 9 9 10 11 12 13 13 13 13 12 13 12 12 12 12 11 11 11 10 10 9 9 9 8 8 8 7 8 8 8 8 8 8 8 8 8 8 7 6 6 5 4 3 3 2 1 0 1 3 3 3 3 3 3 2 3 4 4 4 3 3 3 2 2 3 2 2 2 2 2 2 2 2 2 3 3 4 3 3 2 2 2 2 4 5
19 18 17 17 15 14 13 12 11 11 11 10 10 9 9 8 8 8 8 9 9 10 11 12 13 13 13 13 12 12 12 11 11 11 11 10 10 9 9 9 8 8 8 8 7 8 8 8 9 8 8 8 8 8 7 6 6 6 5 4 3 2 2 2 1 1 2 2 3 3 3 3 4 5 5 4 2 2 2 2 2 2 2 2 3 3 3 3 3 3 3 3 3 3 3 3 2 2 2 2 2 2 3
19 18 17 16 15 13 12 11 10 10 10 9 9 9 8 8 8 8 8 9 9 10 11 12 12 13 13 13 12 12 12 11 11 10 10 10 9 9 8 8 8 8 7 7 7 7 8 8 9 9 8 8 7 7 6 5 5 4 4 3 2 2 2 2 1 1 1 2 3 3 3 5 7 6 5 3 3 3 3 3 3 3 3 4 4 4 4 4 4 4 4 4 4 3 3 2 2 2 2 2 1 1 2
19 18 16 15 14 13 11 10 10 9 9 9 9 8 8 8 8 8 9 9 9 10 10 11 12 13 13 13 12 12 11 11 10 10 9 9 9 8 8 8 7 7 7 7 7 7 8 8 8 8 8 7 6 5 4 3 3 3 2 2 2 2 2 2 2 1 0 1 2 3 5 8 8 7 4 3 2 3 3 3 3 4 4 4 5 5 5 4 5 5 5 5 4 4 3 3 2 2 2 2 1 0 0
19 18 16 15 14 13 11 10 9 9 9 9 9 9 8 8 8 8 8 9 9 10 10 10 11 12 12 12 12 12 11 11 10 10 9 9 8 8 7 7 7 7 6 6 7 7 7 7 8 7 7 5 4 3 1 1 1 1 2 2 3 2 2 3 2 1 0 1 2 5 8 9 8 6 3 2 2 2 2 3 3 4 4 5 5 5 5 5 5 5 5 5 4 4 3 3 2 2 2 1 1 1 0
17 17 16 15 14 13 11 10 9 9 9 9 9 8 8 7 7 7 8 8 9 9 9 9 10 10 11 12 12 11 11 10 10 9 9 8 8 7 7 7 7 6 6 6 6 7 7 7 7 7 6 4 3 3 3 3 3 3 3 3 3 3 3 3 1 0 1 1 4 7 9 9 6 3 3 2 2 2 2 2 3 4 5 5 6 6 5 5 5 5 5 5 5 4 4 3 3 2 2 2 1 1 0
15 16 16 15 13 12 11 10 9 9 9 9 9 8 7 7 7 7 7 7 8 9 9 9 9 9 10 10 10 10 10 10 10 9 9 8 8 7 7 7 6 6 6 6 6 6 7 7 7 6 5 4 4 3 4 4 4 5 5 4 4 3 3 3 1 1 1 3 6 8 8 7 4 3 2 2 2 1 1 2 3 4 5 5 5 5 5 5 5 5 5 5 5 4 4 3 3 3 2 2 2 1 1
14 14 14 14 13 12 11 10 10 9 9 9 8 8 7 7 7 7 6 6 7 8 8 8 8 9 9 9 10 10 10 9 9 9 8 8 7 7 7 6 6 6 6 6 6 6 6 6 6 6 5 4 4 3 4 4 5 5 5 4 4 3 3 3 1 1 3 5 7 8 6 3 2 3 2 2 1 1 2 2 2 3 4 4 4 4 5 5 5 5 5 5 5 4 4 3 3 2 2 2 2 1 1
14 14 13 13 12 11 10 10 10 9 9 8 8 7 7 7 7 7 6 6 6 7 8 8 8 8 8 9 9 9 10 9 9 9 8 8 7 7 6 6 6 5 5 5 6 6 7 7 6 6 5 4 4 3 3 4 4 5 5 4 4 3 3 3 2 3 5 7 8 7 5 2 3 3 2 1 0 1 2 2 2 3 3 4 4 4 4 4 4 4 4 4 4 4 3 3 2 2 1 1 1 1 1
13 13 12 11 10 10 10 9 9 9 9 8 8 7 7 7 7 7 7 6 6 6 7 8 8 8 8 9 9 9 9 9 9 9 8 7 7 6 6 6 5 5 5 5 6 6 7 7 6 6 5 4 4 3 3 4 4 4 4 3 3 3 2 3 4 4 6 7 7 6 3 2 4 3 2 1 1 1 2 2 2 3 3 4 4 4 4 4 4 3 3 3 3 2 2 1 1 1 0 0 0 1 1
13 12 11 10 10 10 9 9 9 9 8 8 8 7 7 7 7 7 7 7 7 7 7 8 9 9 9 8 9 9 9 9 9 9 8 7 7 6 6 6 5 5 5 5 6 6 7 7 6 5 4 4 4 4 4 4 4 3 2 2 2 2 2 4 5 6 6 7 6 4 2 4 4 3 2 1 1 2 2 3 3 4 4 4 3 3 3 3 3 2 2 2 2 1 1 1 1 1 1 1 2 2 2
13 12 10 10 10 10 10 10 9 9 8 8 8 8 7 7 7 7 7 7 7 8 8 9 9 9 9 8 8 8 8 8 8 8 8 7 6 6 6 5 5 5 5 6 6 7 7 6 6 5 5 4 4 4 4 4 4 3 2 1 1 1 2 4 6 6 6 6 4 3 3 4 4 3 2 1 0 2 2 3 3 4 4 3 3 3 2 2 2 1 1 1 1 1 1 2 2 2 2 2 3 3 3
13 11 10 10 10 10 10 9 9 9 9 9 8 8 7 7 7 7 8 8 8 8 9 9 9 9 9 8 8 8 8 8 8 8 7 7 6 6 5 5 5 5 5 5 6 6 7 7 6 5 5 5 5 5 5 4 4 3 3 3 2 0 2 5 6 6 6 5 5 4 4 4 4 3 2 1 0 1 2 2 3 3 3 3 3 2 2 1 1 1 1 1 1 1 1 1 2 2 2 2 2 3 3
12 11 10 10 10 10 9 9 9 9 9 9 8 8 8 8 8 8 9 9 9 9 9 9 9 9 9 8 8 8 8 8 7 7 7 7 6 5 4 4 4 4 4 5 5 6 7 7 6 5 4 5 5 5 5 4 4 3 3 3 3 2 3 5 6 6 6 6 6 6 4 3 3 3 3 2 1 1 1 1 2 2 2 2 1 1 1 1 1 0 0 0 0 0 1 1 1 1 2 2 2 3 3
12 11 10 10 10 9 9 9 9 9 9 9 9 9 9 9 9 9 9 9 9 9 9 9 9 9 9 9 8 8 8 7 7 7 7 6 6 5 4 3 3 3 4 4 4 5 6 6 6 5 4 4 5 5 4 4 4 3 3 4 3 3 3 5 5 5 5 6 7 7 5 4 3 3 3 2 1 1 0 1 1 1 1 1 0 0 0 0 0 0 0 0 1 1 1 1 1 2 2 2 3 3 4
12 11 11 10 10 9 9 9 9 10 10 10 10 10 10 10 9 9 9 9 9 9 9 9 10 10 10 9 9 8 8 7 7 7 6 6 6 5 4 3 2 3 3 4 4 5 5 5 5 4 3 3 4 4 4 4 3 3 3 3 4 3 4 4 5 5 5 6 7 7 6 5 4 3 3 2 1 1 0 0 0 0 0 0 1 1 1 1 1 1 1 1 1 1 1 2 2 2 3 3 3 4 4
12 11 11 10 9 9 9 9 9 10 10 10 10 10 10 10 10 9 9 9 9 9 9 10 10 10 10 10 9 8 8 7 7 7 6 6 5 5 4 3 2 2 3 3 4 5 5 5 4 3 2 3 3 4 3 3 3 3 3 3 3 3 4 4 5 5 5 6 7 6 6 5 4 3 3 2 2 1 1 1 0 0 1 0 1 1 1 2 2 2 2 2 2 2 2 2 2 2 3 3 3 3 4
12 11 10 10 9 9 9 9 10 10 10 10 10 10 10 10 10 10 10 10 10 10 10 10 10 10 10 10 9 8 7 7 7 6 6 6 5 5 4 3 2 2 3 3 4 5 5 4 3 1 2 2 3 3 3 3 3 3 3 3 3 2 3 4 5 5 6 6 6 6 5 4 4 4 4 3 2 2 1 1 1 1 1 1 1 1 1 1 2 2 2 2 2 2 2 2 2 2 2 2 3 3 4
13 12 11 10 9 9 9 10 10 10 10 10 10 10 10 10 10 10 10 10 10 10 10 10 10 10 10 9 9 8 7 6 6 6 6 6 5 5 4 3 2 2 2 3 4 4 4 3 1 0 1 2 2 2 2 2 2 3 3 2 2 2 3 4 5 5 6 6 6 5 5 4 4 4 4 4 3 2 2 1 1 1 1 1 1 1 0 1 1 2 2 2 3 3 3 2 2 2 2 2 2 3 3
13 12 11 10 10 9 9 10 10 10 11 10 10 11 11 11 11 11 11 11 10 10 10 10 10 9 9 8 7 7 6 5 5 5 5 5 4 4 4 3 2 2 2 3 3 4 3 2 1 0 1 2 2 2 2 2 2 3 3 3 2 2 2 3 4 5 6 5 5 5 5 4 4 4 4 4 3 3 2 2 1 1 2 2 1 1 1 0 1 1 2 2 3 3 3 3 3 2 2 2 2 3 3
13 13 12 11 10 9 9 9 10 10 11 10 11 11 11 11 11 11 11 11 10 10 9 9 9 8 8 7 6 6 5 5 5 4 4 3 3 2 2 1 1 1 1 1 2 3 3 2 1 0 1 2 2 2 2 3 3 3 3 3 3 3 3 3 4 4 5 5 5 5 4 4 4 4 4 3 3 3 2 2 2 2 2 2 1 1 1 0 1 1 2 2 3 3 3 3 3 2 2 2 2 2 3
13 13 12 11 10 9 9 9 10 10 11 10 10 11 11 11 11 11 11 11 10 10 9 8 8 7 7 6 6 5 4 4 3 3 2 2 1 1 1 2 2 1 1 1 2 2 3 3 2 1 0 1 2 2 3 3 3 3 3 3 3 3 3 3 3 4 4 5 5 5 4 4 4 4 4 3 3 3 3 3 2 2 2 1 1 1 1 0 0 1 1 2 2 3 3 3 3 2 2 2 2 2 2
14 13 12 11 10 9 9 9 10 10 11 10 10 10 11 11 11 11 11 11 10 9 9 8 7 7 6 6 5 4 3 2 2 1 1 1 2 3 4 5 4 4 2 2 2 3 3 3 2 1 0 1 1 2 3 3 3 3 3 3 3 3 3 3 3 3 4 4 5 5 5 4 4 4 4 4 3 3 3 3 3 2 1 1 0 0 0 0 1 1 2 2 2 3 3 3 3 2 2 2 2 3 3
14 13 12 11 10 9 9 9 10 10 10 10 10 10 10 10 10 10 10 10 9 9 8 7 7 6 5 5 4 3 2 1 2 3 4 4 5 6 6 7 7 6 4 3 2 3 4 3 3 2 1 0 1 2 3 3 3 3 3 3 3 3 3 3 3 3 3 4 5 5 5 4 4 4 4 4 4 4 4 4 3 2 2 1 1 0 1 1 1 2 2 2 2 3 3 3 3 3 3 3 3 3 3
14 13 12 11 10 10 9 10 10 10 10 10 9 9 9 9 10 9 9 9 8 7 7 6 6 5 5 4 3 2 1 1 3 5 6 6 7 8 8 8 8 7 5 3 3 3 4 4 3 2 1 1 1 2 3 3 3 3 3 3 3 3 3 3 3 3 3 3 4 5 5 4 4 4 4 5 5 5 4 4 3 3 2 1 1 1 1 2 2 2 2 3 3 3 3 3 3 3 3 3 3 3 3
13 12 12 11 11 10 10 10 10 10 10 10 9 9 9 9 9 8 8 8 7 7 6 5 5 5 4 4 3 2 1 2 4 5 6 7 8 8 9 9 9 7 5 3 3 3 4 4 4 3 1 1 1 2 3 3 3 3 3 3 3 3 3 3 3 3 3 3 4 5 5 4 4 4 5 5 5 5 4 4 3 2 2 1 1 2 2 2 2 3 3 3 3 3 3 4 4 4 4 4 4 4 4
13 12 12 11 11 10 10 10 10 10 10 9 9 9 9 8 8 8 7 7 7 6 6 5 4 4 4 3 2 1 2 3 4 4 5 6 7 8 9 9 9 8 6 4 3 3 4 4 4 3 2 1 1 2 3 4 4 3 3 3 3 3 3 3 3 2 2 3 4 5 5 4 4 4 4 4 4 3 3 2 2 1 1 1 1 2 2 2 3 3 3 3 3 4 4 4 4 4 4 4 4 4 4
13 12 12 11 11 10 10 10 9 9 9 9 8 8 8 8 8 8 7 6 6 6 6 5 5 4 4 3 3 3 4 5 4 4 4 5 6 7 8 8 8 7 6 5 4 3 4 4 4 4 2 1 2 2 3 4 4 4 4 4 4 4 3 3 3 2 2 3 4 4 4 4 4 4 4 3 3 2 2 2 2 2 1 1 2 2 2 3 3 3 3 4 4 4 4 4 4 4 4 5 4 4 4
13 12 12 11 11 11 10 10 9 8 8 8 8 7 7 7 7 7 7 6 5 5 5 5 5 4 4 4 4 5 6 6 5 4 4 4 5 6 7 8 8 7 6 5 4 4 4 4 4 4 3 2 2 2 3 4 4 4 4 4 4 4 4 3 3 3 3 3 3 3 4 4 4 4 3 3 3 3 3 3 3 3 2 2 2 2 3 3 3 3 4 4 4 4 4 4 5 5 5 5 5 5 5
12 12 11 11 11 11 11 10 9 8 7 7 7 7 6 5 6 7 7 6 5 5 5 5 4 4 4 4 5 7 7 6 5 5 4 4 5 6 6 7 7 7 6 5 5 4 4 4 4 4 3 2 2 2 3 4 4 4 4 4 4 4 4 4 4 3 3 3 3 3 4 4 4 3 3 3 3 3 3 3 3 3 3 3 3 3 3 3 3 4 4 4 4 4 4 5 5 5 5 5 5 5 5
12 12 11 11 11 12 11 11 10 8 7 6 6 6 6 5 5 6 6 6 5 4 4 4 5 5 5 6 7 8 8 6 5 5 5 5 5 5 5 6 6 6 6 6 5 5 5 4 4 4 3 3 2 2 3 4 4 4 4 4 5 4 4 4 4 4 4 4 4 4 4 4 4 4 4 4 4 4 3 3 4 4 4 3 3 3 3 3 4 4 5 5 5 5 5 5 5 5 6 6 6 6 6
12 12 11 11 12 12 12 11 10 9 7 7 6 6 6 5 5 5 5 5 5 5 5 6 6 6 7 8 8 8 7 6 5 5 6 6 6 6 5 6 6 6 6 6 6 6 5 5 4 4 3 3 2 2 3 4 4 4 5 5 5 5 5 5 5 4 4 4 5 5 4 4 4 4 4 4 4 4 4 4 4 4 4 4 4 4 4 4 4 5 5 5 6 6 6 6 6 6 6 7 7 7 7
12 12 12 12 12 12 12 11 10 9 8 7 6 6 6 5 5 4 4 4 5 6 7 8 8 8 9 9 9 8 7 6 6 6 6 7 7 7 6 6 6 6 6 6 6 6 5 5 4 4 3 3 3 3 3 4 4 5 5 5 5 5 5 5 5 5 5 5 5 5 5 5 5 5 5 5 5 5 5 5 5 5 5 5 6 5 5 5 5 5 6 6 6 6 6 6 7 7 7 8 8 8 9
12 12 12 12 13 13 12 11 10 9 8 8 7 7 6 6 5 5 4 5 6 7 8 9 9 9 9 10 9 9 8 7 7 7 7 8 8 8 7 6 6 6 6 6 6 6 5 5 5 4 4 3 3 3 3 4 5 5 5 6 6 6 6 6 6 6 5 6 6 6 6 6 5 6 6 6 6 6 6 6 6 6 6 6 7 7 7 7 7 7 7 7 7 7 8 8 8 8 8 9 9 10 10
12 12 13 13 13 13 12 10 9 9 8 8 8 7 7 7 6 6 6 6 7 8 8 8 9 9 10 10 10 10 10 9 8 8 8 8 8 8 7 7 6 6 6 6 6 6 5 5 5 4 4 4 4 4 4 4 5 5 6 6 6 6 6 6 6 6 6 6 6 6 6 6 6 6 6 6 7 7 7 7 7 7 7 7 8 8 8 8 8 8 8 8 8 9 9 9 9 10 10 10 11 11 11
13 13 13 13 13 13 12 10 9 8 8 8 8 8 8 7 7 7 7 7 7 7 7 8 9 10 10 11 11 11 11 10 9 9 8 8 8 8 7 7 6 6 6 6 6 6 5 5 5 5 4 4 4 4 4 5 5 6 6 7 7 7 7 6 6 6 6 7 7 7 7 7 7 7 7 7 7 7 7 8 8 8 8 8 9 9 9 9 9 9 9 10 10 10 10 11 11 11 12 12 12 13 13
13 13 14 14 14 13 12 11 10 9 8 8 8 8 8 8 8 8 8 8 7 7 7 8 8 9 10 11 11 11 10 10 9 9 8 8 8 7 7 7 6 6 6 6 6 6 5 5 5 5 5 5 5 5 5 5 5 6 7 7 7 7 7 7 7 7 7 7 7 7 7 7 7 7 7 7 8 8 8 8 8 9 9 9 9 10 10 10 11 11 11 11 11 12 12 12 13 13 14 14 14 15 15
13 13 14 14 14 13 12 11 11 10 9 9 8 8 8 9 9 8 8 8 8 7 7 7 7 9 10 10 10 10 10 9 8 8 7 7 7 7 7 7 6 6 6 6 6 6 6 5 5 5 5 6 6 6 5 5 6 6 7 7 8 8 7 7 7 7 7 7 8 8 8 8 8 8 8 8 8 8 9 9 9 9 10 10 10 11 11 12 12 12 12 13 13 13 14 14 14 15 15 16 16 17 17
14 13 13 13 13 13 12 12 12 11 10 10 9 9 9 9 9 9 8 8 8 7 7 6 7 7 8 8 9 9 8 8 8 7 7 8 8 8 7 6 6 6 6 6 6 6 6 6 6 6 6 6 6 6 6 6 6 6 7 7 8 8 8 8 8 8 8 8 8 8 8 8 8 9 9 9 9 9 9 10 10 10 11 11 11 12 12 13 13 13 14 14 15 15 15 16 16 16 17 17 18 18 19
14 13 13 13 13 13 13 13 13 12 12 11 11 11 10 10 9 9 8 8 8 7 7 7 6 6 6 6 7 7 7 7 7 7 8 8 8 8 7 6 6 5 6 6 7 7 7 7 7 6 6 6 6 7 6 6 6 7 7 7 8 8 8 8 8 8 8 8 8 8 9 9 9 9 9 10 10 10 10 11 11 11 11 12 12 13 13 14 14 15 15 16 16 17 17 17 18 18 18 19 19 20 20
14 13 13 13 13 14 14 14 14 13 13 12 12 11 11 10 9 9 8 8 8 7 7 7 6 6 5 6 6 6 7 7 7 7 8 8 8 8 7 6 5 5 6 6 7 7 7 7 7 7 7 7 7 7 7 7 7 7 7 8 8 8 8 8 8 8 9 9 9 9 9 9 10 10 10 10 11 11 11 12 12 12 12 13 13 14 14 15 15 16 17 17 18 18 19 19 19 20 20 21 21 21 22
14 14 13 13 13 14 15 15 15 14 14 13 13 12 11 10 10 9 9 8 8 8 8 8 7 6 6 6 6 6 7 7 8 8 8 8 8 8 7 6 6 6 6 7 7 8 8 8 8 8 7 7 7 7 7 8 8 8 8 8 8 8 8 8 8 8 9 9 9 9 10 10 10 10 11 11 11 12 12 12 13 13 14 14 14 15 15 16 17 17 18 18 19 20 20 21 21 21 22 22 22 23 23
15 14 14 13 14 15 15 15 15 15 15 14 14 13 12 11 10 10 10 9 9 9 8 8 8 7 7 6 6 6 7 8 8 9 10 10 10 9 8 7 6 6 7 7 8 8 9 9 8 8 8 8 8 8 8 8 8 9 9 9 9 9 8 8 8 8 9 9 9 10 10 10 10 11 11 12 12 13 13 13 14 14 15 15 16 16 17 17 18 19 19 20 20 21 21 22 22 23 23 24 24 24 25
17 16 15 14 15 15 15 16 16 16 15 15 14 13 13 12 11 11 11 10 9 9 9 9 9 8 7 7 6 7 7 8 9 10 11 11 11 11 10 9 8 7 8 8 9 9 9 9 9 9 9 8 8 8 9 9 9 9 9 9 9 9 9 9 9 9 9 9 9 9 10 10 10 11 12 12 13 13 14 14 15 15 16 16 17 17 18 19 19 20 20 21 22 22 23 23 24 24 25 25 25 26 26
18 17 16 15 15 15 15 16 16 16 16 15 15 14 14 13 12 12 11 11 10 9 9 9 9 9 9 8 7 7 8 9 10 11 12 12 13 13 12 11 10 9 9 9 9 10 10 10 10 9 9 9 9 9 9 9 10 10 10 10 10 10 10 10 10 10 10 10 10 10 10 10 11 11 12 12 13 13 14 15 15 16 17 18 18 19 19 20 21 21 22 22 23 23 24 24 25 25 26 26 27 27 27
19 17 16 15 15 15 15 16 16 16 16 16 16 15 14 13 13 12 11 11 10 10 9 9 10 10 9 9 8 8 8 9 10 11 12 13 13 13 13 13 12 11 10 10 10 10 10 10 10 10 10 10 10 10 10 11 11 11 10 11 11 11 10 10 10 11 11 11 11 11 11 11 12 12 13 13 14 14 15 16 16 17 18 19 19 20 21 21 22 23 23 24 24 25 25 25 26 26 27 27 28 28 29
20 18 17 16 15 16 16 16 16 16 16 16 16 15 14 13 12 12 11 11 11 10 10 10 10 10 10 10 9 9 9 10 11 12 12 13 14 14 13 13 13 12 11 11 11 11 11 10 10 10 10 10 10 11 11 11 11 11 11 11 11 11 11 11 11 12 12 13 13 13 13 13 13 14 14 15 16 16 17 17 18 18 19 19 20 21 22 23 23 24 25 25 25 26 26 26 27 27 28 28 29 29 29
21 19 18 17 16 16 16 17 17 17 16 16 15 14 14 13 13 13 12 12 12 11 12 12 12 11 11 10 10 9 10 11 11 12 13 13 14 14 14 14 13 12 11 10 10 11 11 11 10 10 10 10 11 11 11 11 11 11 11 12 11 11 11 12 12 13 13 13 13 13 14 14 14 15 15 16 16 17 18 18 19 19 20 20 21 22 22 23 24 25 26 26 27 27 28 28 28 28 28 29 29 30 30
22 21 19 18 17 17 17 17 17 17 16 16 15 14 14 14 14 14 14 13 13 13 13 13 12 12 11 11 10 10 11 11 12 12 13 13 13 13 13 14 14 14 12 11 10 10 11 11 11 10 10 11 11 11 11 11 11 11 11 11 11 11 11 11 11 12 12 12 12 12 13 13 13 14 15 15 16 17 17 18 18 19 20 20 21 22 23 23 24 25 26 27 27 28 29 29 29 29 29 30 30 30 30
23 22 20 19 18 18 17 17 17 17 16 16 16 15 15 15 15 15 15 14 14 14 13 13 13 12 12 11 11 10 11 11 12 12 13 13 12 12 12 13 14 16 16 14 12 11 10 10 10 10 10 10 10 10 10 11 10 10 10 10 9 9 8 9 9 10 10 10 10 11 11 12 13 13 14 15 16 17 17 18 19 19 20 21 22 22 23 23 24 25 25 26 27 27 28 29 29 30 30 30 30 30 31
24 23 22 21 20 19 18 18 17 17 17 17 17 16 16 16 16 16 15 15 15 14 14 14 13 13 13 12 11 11 11 11 12 12 12 12 12 12 12 12 12 13 16 17 15 12 9 7 7 7 8 8 8 9 9 9 9 8 8 7 6 6 6 7 8 8 9 9 10 11 12 13 14 15 16 17 17 18 19 20 20 21 22 23 23 24 24 25 25 25 26 26 26 27 28 28 29 29 29 30 30 31 32
25 24 23 22 21 20 19 19 18 18 17 17 17 17 17 17 17 16 16 15 15 15 15 14 14 13 13 12 11 11 10 11 11 11 11 11 11 11 11 11 12 13 15 15 12 8 6 5 5 6 7 8 8 9 9 8 8 7 6 6 5 6 7 8 9 9 11 11 12 13 14 15 16 17 18 19 20 21 22 22 23 24 24 25 25 26 27 27 28 28 28 28 28 28 28 29 30 30 30 30 31 32 33
26 26 25 24 23 21 20 19 19 18 18 17 17 17 17 17 17 17 16 15 14 14 14 14 14 14 14 12 11 10 10 9 10 10 11 10 10 10 11 11 12 13 13 10 6 4 5 9 11 11 11 10 9 8 8 8 7 7 7 7 8 9 10 11 12 13 14 15 16 17 18 18 19 20 20 21 22 23 23 24 24 25 25 26 27 28 28 29 30 31 31 31 30 30 30 30 30 31 31 32 32 32 33
27 26 26 25 24 23 21 20 19 19 19 18 18 18 18 17 17 16 15 15 14 14 14 14 14 14 13 12 11 10 9 9 9 10 10 10 10 10 10 11 9 6 4 4 4 6 10 13 15 15 12 11 9 8 8 9 9 9 10 11 12 13 15 16 17 17 18 19 19 20 20 20 21 21 21 22 22 23 23 24 24 25 26 26 27 28 29 30 31 31 31 30 30 29 29 29 30 30 31 31 30 30 31
28 27 27 26 25 23 22 21 20 20 19 19 19 18 18 17 17 16 16 15 15 14 14 14 14 13 12 12 11 11 10 10 9 9 10 10 10 10 10 10 10 9 7 6 8 10 13 15 14 12 10 11 11 11 11 12 12 13 14 15 16 17 18 19 19 20 20 21 21 21 21 22 22 22 22 23 23 23 24 24 25 26 26 27 27 28 29 29 29 29 29 29 29 29 29 29 29 29 29 29 28 28 28
29 28 27 26 26 24 23 22 21 21 20 20 19 18 18 17 17 17 16 15 14 14 13 13 13 13 12 11 11 11 11 10 10 10 10 10 10 10 10 10 10 10 10 10 11 12 13 14 12 10 11 14 15 14 14 14 15 16 16 17 18 19 19 20 20 21 21 22 22 22 22 23 23 24 24 24 25 25 26 26 27 27 27 28 28 28 28 28 28 28 28 29 29 29 29 29 28 28 28 28 28 28 28
30 30 29 28 27 25 24 23 22 22 21 21 20 19 19 18 18 17 16 15 14 13 13 13 12 12 12 11 12 12 12 11 10 10 10 10 10 10 10 10 10 10 11 11 12 12 12 12 12 13 13 14 16 18 18 17 17 17 18 18 19 20 20 21 21 21 22 22 22 23 23 23 24 25 25 26 27 27 27 27 27 27 27 27 27 28 28 28 28 29 29 29 29 30 29 29 29 28 28 27 28 28 29
31 31 30 29 28 26 25 24 24 23 22 21 21 20 19 18 17 16 15 14 14 13 13 13 12 11 11 11 12 12 11 10 10 9 10 10 10 9 9 9 10 10 11 11 12 12 13 13 13 14 13 15 18 21 22 21 20 20 20 20 21 22 22 22 22 22 22 22 23 23 24 24 24 25 25 26 27 27 27 27 26 26 26 26 26 27 28 28 28 29 29 30 30 30 29 29 28 27 27 27 27 28 28
31 31 31 30 29 27 26 26 25 24 23 23 22 20 19 18 17 16 16 15 14 14 13 13 12 11 11 11 11 10 10 9 9 9 9 9 9 9 8 9 9 10 11 12 12 13 13 14 14 15 16 17 19 21 23 24 24 23 22 22 22 23 23 23 23 23 23 23 23 23 24 24 25 25 25 25 25 25 25 24 23 23 23 24 25 26 27 27 28 28 29 29 29 29 28 28 27 26 26 27 27 27 28
Wind_Direction
157 154 150 146 145 147 148 146 146 146 146 148 149 147 145 145 143 143 143 145 148 151 152 152 152 152 152 153 154 155 156 157 158 159 161 163 166 169 171 173 176 180 184 190 197 204 205 203 202 204 208 211 212 213 216 222 233 252 274 293 304 312 348 41 35 22 27 27 19 6 355 351 357 77 113 111 108 109 119 135 148 154 153 148 144 139 132 128 120 110 106 92 86 92 99 73 61 61 78 133 148 140 115
158 155 152 148 148 150 151 149 150 152 153 153 152 151 149 147 143 140 139 140 144 148 152 154 155 155 155 155 156 157 158 159 160 161 163 165 168 170 173 175 179 183 188 194 200 205 206 207 208 210 214 217 218 219 220 226 238 253 267 283 295 300 287 95 35 5 19 15 4 349 338 343 360 86 126 122 124 131 142 155 161 163 164 155 150 147 140 139 124 108 107 102 99 102 110 98 85 72 67 116 158 166 161
160 158 157 156 156 158 159 158 158 158 158 157 157 156 154 152 149 146 144 143 144 147 151 154 156 157 158 158 158 159 160 161 162 163 165 167 169 171 173 175 178 183 189 197 203 207 209 210 212 216 220 224 226 227 228 234 243 252 260 268 283 291 264 197 198 347 360 360 350 341 342 4 50 94 114 117 125 140 152 162 166 169 171 157 147 139 122 123 107 96 107 106 106 112 123 118 105 89 79 72 133 170 180
162 162 162 164 166 167 167 168 168 167 167 165 164 165 164 162 161 158 156 153 150 149 150 153 156 159 161 160 161 161 162 163 164 166 167 168 169 171 172 174 177 182 189 198 205 211 214 216 218 221 225 229 232 233 234 237 240 244 249 257 276 291 283 257 256 316 343 342 335 339 1 47 79 91 97 100 106 115 115 123 120 120 132 133 131 124 114 113 112 106 96 94 97 107 124 119 106 93 82 66 86 136 166
165 166 167 169 172 174 175 176 176 175 173 172 171 172 172 171 169 166 163 160 157 153 151 153 156 160 162 163 163 163 164 165 166 167 168 169 170 171 171 173 176 180 188 198 208 215 220 223 224 226 229 232 233 233 229 227 227 231 240 258 290 312 315 305 314 345 343 322 329 355 42 78 87 87 87 93 97 97 99 101 110 114 110 118 122 121 120 120 125 122 106 101 96 98 112 112 118 113 92 76 76 112 149
168 169 169 171 175 179 179 180 179 176 173 171 172 173 171 171 169 166 165 162 160 157 155 155 156 159 162 163 165 166 167 167 168 169 169 170 171 171 172 172 175 180 187 197 208 218 225 229 231 233 235 237 238 234 223 215 216 226 250 296 325 340 358 27 43 44 344 321 349 39 77 88 88 87 92 103 116 121 119 118 127 131 126 123 121 123 130 134 135 129 119 115 110 108 117 118 128 129 107 94 94 103 150
171 173 171 172 177 181 180 180 177 172 168 165 169 172 169 167 166 166 164 162 160 160 159 158 157 157 160 163 165 168 169 170 170 170 171 171 171 172 172 173 175 180 186 197 209 220 229 235 238 241 245 253 262 271 271 272 286 307 328 341 350 6 37 61 67 71 83 343 43 76 91 90 90 96 121 141 147 150 148 147 145 143 138 129 125 127 133 140 142 139 136 134 130 130 137 137 137 134 119 121 116 88 51
173 175 175 174 176 178 179 177 174 170 166 163 167 171 168 166 166 165 164 162 161 161 161 160 159 157 158 161 165 169 171 171 172 172 172 172 172 172 173 174 177 181 187 197 208 221 231 239 243 247 255 270 291 313 335 345 344 343 345 350 360 21 56 79 89 277 284 41 81 89 93 93 98 120 153 181 193 182 161 154 147 141 135 130 128 130 131 133 136 140 143 142 138 137 142 145 145 143 147 168 171 151 153
172 174 175 174 175 178 180 178 175 171 170 170 171 171 168 166 165 163 163 163 161 161 161 161 161 160 160 162 165 168 171 172 172 173 173 172 172 173 173 176 178 181 187 196 207 219 230 240 244 249 257 272 292 313 330 340 339 338 340 346 1 27 59 80 76 319 12 83 92 92 91 97 119 162 186 215 224 206 160 140 133 130 128 128 128 129 127 127 131 134 138 140 137 134 134 139 142 147 164 179 190 202 218
169 172 174 175 177 180 181 179 176 175 176 176 175 172 166 164 164 164 165 164 162 160 159 158 159 162 162 162 164 167 168 170 171 172 171 172 172 173 174 177 180 182 186 193 203 216 227 237 243 247 253 264 280 297 315 325 327 327 331 339 360 31 65 83 61 28 73 95 96 92 91 106 164 200 222 240 226 152 127 120 122 125 128 131 134 134 130 129 130 132 134 135 135 133 133 135 135 141 157 172 192 213 236
169 172 174 175 177 179 180 179 177 177 177 177 174 170 165 164 164 165 165 164 161 157 153 152 154 157 159 160 162 164 165 166 167 168 168 170 171 173 176 178 181 183 186 190 199 211 223 233 239 243 248 257 269 283 299 308 311 315 323 336 356 28 67 94 82 70 89 97 96 93 98 159 224 238 250 249 159 104 100 103 113 121 129 137 142 144 140 136 134 134 135 135 137 137 137 135 131 135 143 159 184 234 276
171 174 176 176 176 175 175 173 173 175 174 171 168 164 162 162 162 163 165 164 163 158 151 148 147 149 153 156 159 161 162 163 163 164 165 168 170 173 176 180 183 185 186 190 196 208 219 229 236 241 246 254 263 272 282 287 290 297 312 332 351 16 68 102 96 84 87 89 90 94 115 203 245 263 268 242 147 93 75 87 100 110 117 126 136 142 144 142 139 139 140 141 143 144 146 145 144 143 126 344 306 309 311
174 177 179 177 174 171 167 164 164 166 165 162 159 157 156 157 158 161 165 166 165 161 152 146 145 147 150 153 157 161 162 163 163 163 164 167 169 174 178 183 187 189 190 192 196 206 217 226 234 241 247 253 256 259 261 264 267 275 288 317 339 7 76 109 103 90 84 79 82 99 154 220 247 266 267 230 126 80 69 85 100 104 106 109 117 127 135 141 144 146 150 158 165 178 196 222 250 271 287 301 306 308 310
176 178 179 175 170 164 159 155 154 154 153 151 150 150 149 151 153 157 162 165 164 160 153 147 146 148 149 153 157 161 163 164 164 164 165 167 170 174 181 188 195 198 199 198 200 207 215 223 230 239 247 250 248 246 247 249 252 252 244 243 302 360 100 118 112 101 92 89 101 141 192 226 247 256 253 230 99 64 65 88 102 106 104 103 104 107 116 123 135 144 160 183 204 221 234 250 264 273 286 294 305 312 316
176 177 175 169 162 157 153 149 146 143 142 142 142 142 143 145 148 152 156 158 158 155 152 150 149 150 151 153 157 160 163 164 165 165 165 166 169 175 183 194 203 210 213 214 213 213 216 219 224 233 242 244 240 238 240 243 244 238 227 219 228 194 126 129 124 118 120 130 150 175 201 225 238 241 239 240 319 44 56 89 104 110 107 106 103 101 100 104 109 120 155 201 224 241 252 263 273 281 296 305 319 327 331
174 172 169 161 155 152 150 145 140 136 136 136 136 137 137 139 141 144 149 150 151 151 151 151 151 151 152 153 155 157 159 161 163 164 165 166 168 173 183 197 211 221 229 232 230 225 222 222 221 224 230 232 232 233 234 236 236 230 222 215 214 193 149 143 140 140 149 160 172 184 198 214 224 227 232 239 272 11 46 87 106 112 111 113 114 110 102 103 104 108 141 220 290 317 309 319 325 331 340 350 357 356 351
170 167 164 158 154 151 148 142 137 134 133 133 134 134 135 136 138 141 144 145 147 149 151 152 153 154 154 153 154 155 155 156 157 159 162 164 165 168 177 192 213 230 241 245 241 235 229 227 225 220 210 212 219 224 226 225 225 222 218 214 212 199 169 160 156 158 173 182 187 190 195 204 212 219 224 238 261 313 33 85 102 112 118 110 78 42 37 358 322 344 293 348 354 360 8 16 20 20 21 21 18 11 2
167 164 162 159 155 151 146 140 136 134 133 133 134 135 136 138 140 142 143 144 146 148 150 152 154 155 156 156 156 156 156 155 154 155 158 162 163 163 167 179 203 229 242 246 243 239 234 232 229 219 186 184 200 214 218 218 215 215 215 216 215 207 188 177 171 174 191 197 197 197 196 201 207 216 227 242 255 256 198 117 117 131 293 9 354 345 345 346 346 359 4 10 12 17 25 30 31 29 30 28 23 13 6
168 165 162 158 153 148 145 140 137 137 136 135 136 138 139 140 142 143 143 144 145 146 147 149 152 154 157 159 161 163 162 158 155 155 157 160 162 163 164 171 188 215 233 237 239 239 236 233 231 214 161 162 184 206 213 212 209 211 213 216 218 213 199 191 186 191 203 206 204 201 201 203 209 221 239 251 249 229 198 181 198 273 303 322 334 336 347 360 9 17 23 23 23 24 32 34 35 34 32 28 22 15 10
171 168 163 157 150 146 145 142 140 139 139 139 139 140 141 142 143 144 145 144 144 144 145 147 149 153 157 161 165 167 168 165 161 160 161 164 166 167 169 173 185 207 221 227 232 237 237 233 229 203 133 145 170 196 210 209 206 206 210 214 220 216 205 198 197 204 212 212 208 205 207 211 221 236 249 253 244 221 202 199 221 259 285 276 272 298 346 14 26 32 31 25 23 22 25 31 39 39 36 32 27 19 15
172 169 165 159 154 150 147 145 144 143 143 143 143 143 143 144 145 145 145 145 145 144 145 146 148 152 156 161 165 167 167 167 167 168 169 169 170 171 173 177 188 208 222 224 231 237 241 239 236 141 110 136 160 188 210 210 205 203 208 215 218 218 210 204 205 212 219 216 210 207 211 220 233 246 254 251 237 214 204 210 230 260 271 261 246 241 283 41 44 42 37 28 23 18 19 23 33 40 39 37 30 26 23
173 170 167 164 160 156 151 149 149 148 147 147 146 146 145 145 145 145 145 145 144 145 146 147 149 152 155 158 159 160 161 164 168 172 176 175 174 175 177 180 188 201 220 227 234 241 247 250 260 30 101 132 156 183 211 216 211 205 207 213 219 220 216 214 215 220 224 217 210 208 214 222 235 247 253 247 229 212 208 217 235 261 273 266 247 222 201 101 56 44 34 25 20 17 16 20 30 36 41 38 34 30 27
173 170 168 167 165 160 156 154 154 153 152 151 149 147 146 145 145 145 144 143 143 144 147 148 151 152 154 157 157 157 160 164 166 168 171 173 176 181 192 200 188 181 210 240 248 254 257 259 263 259 101 130 156 187 213 221 218 209 208 211 217 223 225 225 225 227 229 217 209 209 214 222 231 242 248 244 227 213 216 225 241 258 274 273 251 210 189 140 58 37 25 18 13 11 14 18 26 36 41 38 32 30 26
172 170 169 168 167 164 159 157 158 158 156 155 152 150 148 147 146 144 142 141 140 143 146 150 152 154 156 157 158 160 163 165 165 163 164 167 185 235 285 303 322 350 3 325 290 275 267 261 259 256 114 136 166 195 216 223 220 212 209 212 217 225 232 235 235 235 233 218 210 210 216 221 227 236 242 240 230 223 226 234 245 260 275 274 248 186 181 161 27 15 14 7 3 3 5 11 19 28 35 34 30 26 21
172 170 170 170 170 168 163 161 161 161 160 158 156 154 151 149 147 146 143 141 142 143 147 150 154 157 159 159 159 160 165 172 184 210 256 288 298 304 310 313 317 326 337 336 311 288 274 267 264 261 183 151 185 208 221 223 220 214 211 212 217 225 233 241 247 248 239 222 214 213 220 222 227 233 239 239 235 233 234 240 250 261 275 276 244 182 217 342 352 357 358 354 352 353 356 3 10 19 24 24 23 21 18
172 171 171 172 172 171 166 163 162 161 160 159 160 159 156 152 150 149 146 144 144 145 148 150 154 157 161 160 159 160 170 216 277 295 303 305 307 309 310 311 311 314 320 320 306 288 276 270 268 273 284 212 210 224 230 227 222 216 215 215 220 225 232 240 251 258 252 232 220 217 222 226 231 235 239 241 238 237 238 242 249 259 273 284 296 322 322 327 335 339 343 343 343 344 348 353 358 3 8 11 14 14 14
174 173 173 174 174 173 169 166 163 161 159 160 162 164 164 159 155 152 149 146 145 147 148 150 153 157 161 162 161 160 186 279 298 304 305 307 308 308 305 303 304 305 309 306 293 280 276 272 272 277 288 272 245 241 242 236 228 220 219 219 221 225 231 237 248 259 264 245 229 223 224 229 235 240 243 242 240 239 238 239 243 251 263 281 298 312 312 319 322 328 331 334 336 338 342 344 347 348 351 356 1 6 8
176 176 176 176 177 175 171 168 165 163 160 161 163 167 170 166 162 157 152 147 146 147 151 154 158 163 168 170 170 173 239 290 300 304 305 304 303 300 296 293 294 297 300 297 284 275 273 272 274 278 285 284 264 254 250 243 235 227 224 224 224 225 230 234 241 255 263 251 236 228 228 233 239 243 244 243 241 239 237 237 237 241 250 264 285 296 305 311 315 321 324 327 329 332 335 337 337 338 339 345 350 354 358
178 178 179 180 179 177 173 170 169 167 165 164 165 167 170 169 165 160 154 148 147 151 158 162 169 178 188 197 208 243 279 288 293 295 297 293 289 286 284 284 286 289 293 289 279 270 268 270 275 279 285 284 260 250 248 246 239 232 230 228 226 225 228 231 237 245 256 251 240 232 232 239 245 249 251 249 247 247 248 251 256 259 260 271 281 292 299 305 310 315 318 321 323 325 328 330 330 330 333 337 341 344 347
181 182 182 183 182 179 175 173 172 172 170 169 167 166 164 166 164 160 155 150 151 158 167 173 181 193 211 230 248 269 279 282 283 282 280 274 271 271 272 275 279 283 285 283 275 265 261 266 273 279 284 275 249 239 241 241 239 236 233 230 229 227 228 230 233 239 248 249 243 238 239 245 252 259 266 272 280 288 303 320 328 332 326 306 296 293 298 302 306 309 312 313 315 317 320 322 322 323 326 329 332 334 337
184 186 186 187 185 182 178 175 176 177 177 175 170 165 161 161 162 159 154 153 157 166 175 181 189 203 225 245 258 266 270 273 276 277 273 265 261 261 265 270 274 278 279 278 271 262 260 263 270 277 280 271 244 232 235 238 238 236 234 233 231 229 229 231 233 236 241 246 243 239 242 251 259 266 277 291 302 312 322 329 331 334 330 320 306 298 296 297 300 302 305 305 307 309 311 312 314 316 318 320 322 324 325
187 190 192 192 190 186 182 179 180 182 183 180 173 166 162 163 163 161 157 157 163 174 184 190 201 217 236 250 257 261 265 269 275 280 280 272 266 265 267 270 273 276 277 274 270 267 264 264 268 274 276 272 250 232 237 239 239 237 235 235 232 231 232 232 235 237 241 248 249 247 247 255 264 272 277 284 292 300 308 314 318 321 320 316 308 300 296 294 295 296 296 297 298 299 301 302 304 306 308 310 312 312 314
192 196 198 199 196 192 188 184 183 184 187 184 176 170 168 170 172 170 167 165 169 181 196 205 215 227 239 248 254 258 263 269 277 284 288 288 285 279 275 274 274 275 273 271 269 267 266 266 268 271 275 275 261 243 240 243 244 241 237 235 234 233 234 237 238 239 241 248 252 254 253 257 264 270 274 276 281 287 294 300 305 308 308 307 304 299 293 290 288 288 289 290 290 291 291 292 294 297 299 300 302 303 304
199 203 206 207 205 201 195 188 184 184 187 187 182 176 176 180 184 183 178 176 180 194 209 219 226 231 238 245 252 258 264 271 280 288 295 299 299 295 287 280 276 273 269 266 264 264 264 265 268 270 274 277 273 260 252 250 249 246 241 237 236 237 238 240 244 244 244 248 252 256 257 259 262 267 270 274 278 282 288 292 297 300 302 302 300 297 293 289 286 285 286 286 287 287 287 286 287 289 291 293 294 295 296
208 213 215 216 214 210 203 194 186 184 186 188 186 184 185 190 196 196 191 190 197 207 217 226 231 236 241 248 254 259 267 274 284 292 299 304 304 299 293 285 277 269 265 262 260 260 262 265 268 272 276 281 282 276 266 258 255 252 245 240 238 239 242 245 247 248 249 250 252 256 258 261 264 267 271 274 278 281 285 289 292 294 297 298 297 296 294 291 288 287 285 285 285 286 285 285 284 284 285 286 288 290 292
216 220 224 225 223 218 211 200 190 185 184 186 188 189 193 198 202 203 201 205 212 218 223 230 236 241 247 252 258 263 269 276 284 291 298 301 301 298 292 285 275 267 262 260 258 258 260 264 269 274 278 283 284 280 274 267 262 257 251 245 243 243 245 248 250 252 253 254 255 256 259 261 264 268 272 275 278 281 284 286 288 291 292 294 295 295 295 295 292 290 288 287 285 286 285 284 283 282 283 283 285 286 288
219 224 227 229 229 225 218 208 198 189 186 186 189 193 196 200 203 206 208 214 221 226 231 236 241 246 253 257 260 265 271 275 280 286 292 294 294 292 289 282 273 264 261 258 258 257 259 263 268 274 278 281 282 281 277 271 266 261 255 250 248 248 249 252 255 256 257 257 258 260 260 263 266 269 273 276 279 281 284 285 287 289 291 292 293 294 295 295 294 294 292 290 288 287 286 285 284 284 283 283 283 284 286
221 224 228 230 231 229 224 217 208 199 193 191 193 197 200 203 205 209 214 221 227 233 238 241 245 251 257 261 264 267 272 275 279 282 285 285 286 286 285 280 273 264 260 257 257 257 260 263 266 271 276 279 280 279 277 273 266 261 258 255 253 253 254 256 258 260 261 262 262 263 265 266 268 271 273 276 279 282 284 286 288 289 290 291 292 294 294 295 295 294 293 291 290 288 287 286 286 285 284 284 284 284 285
224 226 228 229 230 230 228 223 218 211 205 200 199 201 204 206 208 211 216 222 227 234 239 244 248 253 258 262 265 268 271 274 276 278 278 279 279 281 280 277 271 265 260 257 257 259 261 263 266 270 274 277 278 278 275 271 264 260 257 257 257 258 259 261 263 264 265 265 266 267 269 270 272 274 276 278 280 283 285 287 288 290 290 292 292 293 293 294 294 294 293 292 290 289 288 287 286 286 286 285 285 285 286
227 228 229 229 230 230 230 227 224 220 216 211 209 208 209 211 212 213 216 220 224 230 237 243 249 253 256 261 264 266 268 270 273 274 276 276 277 277 277 274 269 263 259 257 257 259 261 263 266 269 273 276 278 277 275 271 265 258 255 256 260 262 264 265 267 267 268 269 269 270 272 274 276 277 279 281 283 285 286 288 289 290 291 291 292 292 292 292 292 292 291 291 290 289 289 288 287 286 286 286 286 287 287
229 230 231 229 229 230 230 229 227 224 221 219 217 216 216 216 216 216 218 220 224 228 235 243 249 253 256 259 260 261 263 267 272 276 279 280 279 279 278 275 269 263 260 258 258 259 260 262 265 268 272 275 278 280 279 275 268 260 255 255 259 264 267 269 270 271 272 272 272 273 275 276 278 280 281 283 284 285 287 288 289 290 290 291 291 291 291 290 290 290 290 289 289 289 288 288 287 287 287 287 287 288 288
230 231 231 230 229 229 229 230 229 227 225 223 222 222 223 223 223 222 223 225 227 230 236 242 250 255 256 256 255 257 260 268 276 281 284 284 285 284 284 281 275 267 262 259 257 258 259 261 263 266 270 275 279 282 282 279 273 265 258 255 256 261 266 270 272 274 275 275 276 277 277 278 280 281 283 284 285 286 287 288 289 289 290 290 290 290 289 289 289 289 288 288 288 288 288 288 288 288 287 288 288 288 288
230 231 231 229 228 227 228 229 229 228 227 226 226 226 228 228 229 229 229 231 233 236 240 246 251 254 256 254 255 258 265 273 282 287 289 289 290 292 292 288 282 273 266 261 259 258 258 260 262 265 269 275 281 283 283 280 275 269 262 257 255 258 264 269 273 275 277 278 279 280 281 281 282 283 284 285 286 286 287 288 289 289 289 289 289 289 289 288 288 288 288 288 288 288 288 288 288 288 288 288 288 288 289
229 230 230 228 226 226 226 227 228 228 228 228 229 230 231 232 232 233 234 236 238 240 244 250 254 257 259 260 262 267 274 282 288 293 296 298 300 301 301 297 288 278 269 264 262 260 259 259 262 265 271 276 280 283 283 281 276 270 264 259 258 258 262 266 270 274 276 279 281 282 283 284 284 285 286 287 287 288 289 289 289 289 289 289 289 289 288 288 288 288 288 288 288 288 288 288 288 288 288 288 288 288 288
229 228 227 226 224 224 224 225 227 228 228 230 231 232 233 233 233 234 236 239 241 243 245 251 257 262 265 268 272 277 284 290 295 299 303 306 308 309 307 304 295 283 272 266 263 261 260 260 263 266 272 277 281 283 282 281 277 272 266 263 261 261 262 264 266 269 272 274 277 279 281 282 284 286 286 287 288 288 289 289 290 290 289 289 289 289 288 288 288 288 288 288 288 288 288 288 288 288 288 287 287 287 287
229 227 225 223 222 222 223 224 226 227 229 230 232 233 234 233 234 235 238 240 243 245 248 252 258 265 270 274 279 284 289 294 299 303 306 307 308 308 308 307 300 289 277 268 263 262 261 262 264 269 274 278 281 283 283 281 278 274 270 267 265 264 264 264 266 267 268 270 271 273 276 278 281 283 284 285 286 288 289 289 290 290 290 290 290 290 290 290 289 289 289 288 288 288 288 288 288 287 287 287 287 286 286
231 229 226 224 222 221 222 223 225 227 228 230 231 233 234 234 236 238 240 243 246 249 251 255 259 265 273 277 281 285 289 293 297 300 302 303 304 304 305 306 304 296 285 275 268 264 263 264 267 271 276 280 283 284 283 281 279 277 275 272 269 268 268 268 269 269 270 270 271 272 274 277 279 281 282 284 285 287 288 289 290 291 291 292 293 293 292 292 291 291 290 290 290 289 289 288 288 288 287 287 287 286 286
233 231 229 226 224 223 222 224 225 227 229 230 231 233 235 237 239 242 246 250 252 254 255 258 260 264 270 275 280 284 286 289 293 295 296 297 298 301 304 305 304 300 293 284 276 270 268 268 270 274 278 282 285 285 284 282 280 279 278 275 274 273 273 273 273 274 275 275 276 277 279 280 282 284 285 286 287 288 289 290 291 292 293 294 294 295 295 294 294 293 293 292 291 291 290 289 289 288 288 288 287 287 287
234 232 230 228 225 224 224 224 226 228 230 231 233 236 239 241 244 247 250 253 256 257 257 258 259 262 266 271 276 281 284 286 289 291 292 291 293 297 302 303 302 299 297 291 284 278 274 273 274 277 281 283 284 285 284 283 282 281 279 278 277 276 277 277 278 278 279 280 281 283 284 286 287 289 289 290 291 292 292 293 293 294 294 295 295 296 295 295 295 294 294 293 293 292 291 290 290 290 289 289 289 289 288
234 232 230 227 226 225 224 225 226 229 231 233 236 238 240 242 244 246 248 250 252 253 253 255 258 260 263 269 274 278 281 282 284 285 286 287 291 296 301 302 300 298 296 293 289 285 281 279 279 281 283 284 284 284 283 284 283 283 282 281 280 280 280 281 281 282 282 283 284 286 288 289 291 292 293 294 294 294 295 295 296 296 296 297 297 296 296 295 295 294 294 294 293 293 292 292 291 291 290 290 290 289 289
234 233 231 229 227 226 226 226 228 230 232 234 236 237 237 239 240 242 244 247 249 250 251 252 256 261 264 266 270 274 276 278 279 280 280 284 290 296 299 302 303 303 301 297 292 287 285 284 283 283 282 282 281 282 282 284 285 286 285 285 284 283 283 283 283 284 284 286 288 289 291 292 293 294 295 296 296 297 297 298 299 299 299 299 299 299 298 297 296 296 295 295 294 294 293 293 292 292 292 291 290 290 289
234 234 233 231 230 228 228 228 230 231 232 233 233 234 234 235 237 239 243 245 248 251 254 255 256 260 265 266 267 270 272 274 277 278 278 282 288 294 297 302 306 310 312 311 306 299 293 289 285 282 279 278 279 280 282 284 287 288 288 287 286 286 286 285 286 287 289 291 294 295 296 296 297 297 298 298 298 299 300 300 300 301 301 301 300 300 299 299 299 299 299 298 298 297 297 296 295 295 294 294 293 292 291
233 233 233 233 232 232 231 230 231 232 233 233 233 232 233 234 235 238 242 245 248 251 256 259 260 261 263 265 266 268 272 275 277 279 280 281 285 290 295 300 304 309 313 316 317 316 310 303 294 288 284 284 284 285 286 287 288 288 287 287 287 289 289 291 292 294 296 299 301 301 300 300 301 301 300 300 300 300 300 300 300 300 300 299 299 299 299 299 300 301 301 301 301 301 302 302 301 300 299 298 297 297 296
232 231 231 232 233 233 232 231 231 232 234 236 237 236 236 236 236 238 241 243 247 250 254 259 262 263 264 266 268 271 275 278 280 280 281 282 282 285 290 296 302 307 313 316 318 321 319 312 305 300 299 297 295 293 291 289 286 285 285 285 287 291 294 296 297 298 300 301 302 302 301 301 302 302 301 301 301 300 300 299 299 299 299 298 298 298 298 298 297 296 295 295 296 298 300 301 302 302 301 300 298 297 296
231 230 230 230 231 232 233 233 232 233 235 237 239 239 239 239 239 241 243 246 249 253 256 259 262 263 264 268 273 277 280 281 282 281 281 283 283 283 285 293 301 309 315 320 321 318 314 312 308 305 304 301 299 296 292 287 283 282 283 286 288 291 294 295 297 298 299 299 300 300 301 302 302 302 303 303 303 302 302 302 301 301 301 301 300 300 299 298 295 293 291 289 290 292 294 295 295 296 296 296 296 294 294
231 230 230 230 231 232 234 234 233 233 235 237 239 240 241 242 243 244 246 249 252 255 258 260 262 265 268 270 274 278 282 282 282 282 282 283 284 285 287 290 294 301 314 322 321 314 310 314 314 313 309 305 301 296 289 286 284 282 283 286 289 291 293 294 295 297 298 298 299 300 302 303 305 306 306 307 307 306 306 306 306 305 305 305 304 303 302 301 299 298 297 296 296 296 295 295 293 293 293 295 296 296 295
231 231 231 231 231 232 233 233 233 233 235 237 239 241 242 242 243 244 245 248 250 253 257 261 264 267 271 272 273 274 277 280 282 283 284 284 284 285 287 289 291 292 292 297 301 305 311 317 320 318 311 306 302 297 291 288 286 285 286 288 289 291 292 294 296 297 298 300 301 302 304 305 307 308 308 308 308 308 308 308 308 308 308 307 306 305 303 302 301 301 301 301 300 299 298 297 296 296 297 298 299 299 299
231 231 231 231 231 232 232 232 232 233 235 237 239 241 241 241 240 241 242 245 248 252 257 261 265 268 270 271 271 271 274 278 283 286 287 286 284 283 285 288 293 298 299 300 302 306 313 318 317 311 307 307 306 302 299 296 293 292 293 294 295 295 296 297 299 300 302 303 305 305 306 307 307 308 308 307 307 306 307 307 307 307 307 306 304 302 301 300 299 298 298 298 298 297 298 298 299 299 301 301 302 302 302
231 232 232 232 232 231 231 231 232 233 235 237 239 240 240 239 239 240 242 245 249 253 256 260 264 267 269 269 268 268 272 280 287 289 287 285 284 284 285 288 291 295 299 303 306 309 311 310 309 308 307 307 307 307 306 304 303 303 303 303 303 304 304 304 305 306 306 307 308 309 309 309 309 308 308 307 307 306 306 306 306 306 305 303 301 299 297 296 295 294 294 294 295 295 296 297 298 299 301 301 302 303 303
231 231 232 231 231 230 230 230 231 233 235 237 238 239 239 239 239 240 242 245 248 251 255 259 263 266 266 266 266 268 273 282 287 288 285 283 285 287 289 289 291 294 296 298 302 305 307 308 308 308 306 303 304 306 308 308 309 309 310 310 310 310 310 309 310 310 310 310 310 311 311 312 312 312 311 310 310 309 308 307 306 304 302 299 297 295 293 292 291 291 291 291 291 292 293 294 296 297 298 300 301 302 302
230 231 231 231 230 229 229 229 230 232 235 236 237 238 239 240 240 240 241 243 245 249 252 257 259 260 260 262 264 268 275 281 283 283 284 285 288 293 295 295 295 296 298 299 301 303 304 306 307 306 305 305 305 305 305 309 310 312 312 312 312 312 311 311 311 311 311 312 313 314 315 316 317 317 316 314 313 311 308 306 303 300 297 294 292 290 289 288 288 288 287 288 288 289 291 292 293 295 296 297 298 299 300